Home   Weather   Dushanbe   Past weeks

Flag for Tajikistan Past Weather in Dushanbe, Tajikistan — Yesterday and Last 2 Weeks

Now
64 °F

Clear.


Feels Like: 64 °F
Forecast: 53 / 75 °F
Wind: 3 mph from Northwest

Location: Dushanbe Airport

Current Time: Apr 23, 2017 at 9:01:57 pm

Latest Report: Apr 23, 2017 at 8:30 pm


Visibility: N/A

Pressure: 30.12 "Hg (27.32 "Hg at 832m altitude)

Humidity: 52%

Dew Point: 46 °F

Location of DushanbeLocation

Past Weather in Dushanbe — Graph

°F

Dushanbe Temperature Yesterday

Maximum temperature yesterday: 68 °F (at 2:30 pm)
Minimum temperature yesterday: 54 °F (at 5:30 am)
Average temperature yesterday: 60 °F

High & Low Weather Summary for the Past Weeks

 TemperatureHumidityPressure
High88 °F (Apr 16, 2:00 pm)94% (Apr 19, 12:00 am)30.36 "Hg (Apr 19, 12:00 am)
Low43 °F (Apr 9, 5:30 am)16% (Apr 9, 1:00 pm)29.83 "Hg (Apr 20, 3:30 am)
Average65 °F52%30.08 "Hg
* Reported Apr 8 7:00 pm — Apr 23 7:30 pm, Dushanbe, Weather by CustomWeather, © 2017

Note: Actual official high and low records may vary slightly from our data, if they occured in-between our weather recording intervals... More about our weather records

Advertising

Dushanbe Weather History for the Previous 24 Hours

Scroll right to see more
 ConditionsComfort  
Time TempWeatherWind HumidityBarometerVisibility
7:30 pm
Sun, Apr 23
68 °FClear.3 mph40%30.09 "HgN/A
7:00 pm68 °FPassing clouds.3 mph40%30.09 "HgN/A
6:00 pm70 °FPassing clouds.6 mph40%30.12 "HgN/A
5:30 pm72 °FPassing clouds.6 mph38%30.12 "HgN/A
5:00 pm72 °FPassing clouds.6 mph41%30.12 "HgN/A
4:30 pm72 °FPassing clouds.8 mph38%30.12 "HgN/A
4:00 pm72 °FPassing clouds.6 mph41%30.12 "HgN/A
3:30 pm72 °FPassing clouds.8 mph38%30.12 "HgN/A
3:00 pm73 °FPassing clouds.3 mph38%30.15 "HgN/A
2:30 pm72 °FPassing clouds.3 mph41%30.15 "HgN/A
2:00 pm72 °FPassing clouds.3 mph50%30.15 "HgN/A
1:30 pm72 °FPassing clouds.6 mph50%30.18 "HgN/A
12:30 pm70 °FPassing clouds.8 mph40%30.18 "HgN/A
12:00 pm70 °FPassing clouds.6 mph46%30.18 "HgN/A
11:30 am68 °FPassing clouds.6 mph53%30.18 "HgN/A
11:00 am68 °FPassing clouds.1 mph49%30.18 "HgN/A
10:30 am66 °FClear.1 mph52%30.21 "HgN/A
10:00 am64 °FClear.1 mph60%30.21 "HgN/A
9:30 am63 °FClear.1 mph64%30.21 "HgN/A
9:00 am61 °FClear.1 mph68%30.18 "HgN/A
8:30 am59 °FClear.1 mph72%30.18 "HgN/A
7:30 am55 °FClear.3 mph77%30.18 "HgN/A
7:00 am55 °FClear.No wind77%30.18 "HgN/A
6:30 am52 °FClear.1 mph82%30.18 "HgN/A
6:00 am52 °FClear.3 mph82%30.15 "HgN/A
5:30 am50 °FClear.3 mph88%30.15 "HgN/A
5:00 am52 °FClear.No wind82%30.15 "HgN/A
4:30 am50 °FClear.No wind88%30.15 "HgN/A
4:00 am52 °FClear.3 mph82%30.15 "HgN/A
3:00 am52 °FClear.3 mph88%30.15 "HgN/A
2:30 am54 °FClear.3 mph82%30.15 "HgN/A
2:00 am52 °FPassing clouds.3 mph82%30.18 "HgN/A
1:30 am54 °FPassing clouds.3 mph82%30.18 "HgN/A
1:00 am54 °FPassing clouds.3 mph82%30.18 "HgN/A
12:30 am54 °FPassing clouds.No wind82%30.18 "HgN/A
11:30 pm
Sat, Apr 22
55 °FPassing clouds.1 mph77%30.18 "HgN/A
11:00 pm55 °FPassing clouds.3 mph77%30.18 "HgN/A
10:30 pm57 °FPassing clouds.6 mph72%30.18 "HgN/A
10:00 pm55 °FPassing clouds.6 mph77%30.18 "HgN/A
9:30 pm59 °FPassing clouds.3 mph68%30.18 "HgN/A
9:00 pm59 °FPassing clouds.3 mph72%30.18 "HgN/A
Weather by CustomWeather, © 2017

See weather overviewHow to use our weather pages